Weather Roundup
Issued by NWS

Home | Current Version | Previous Version | Text Only | Print | Product List | Glossary On
Versions: 1 2 3 4 5 6 7 8 9 10 11 12 13 14 15 16 17 18 19 20 21 22 23 24 25 26 27 28 29 30 31 32 33 34 35 36 37 38 39 40 41 42 43 44 45 46 47 48 49 50
000
NZUS93 KARX 011410
HRRWXR

CURRENT HOURLY OBSERVATIONS ACROSS
MUCH OF THE UPPER MISSISSIPPI VALLEY
NATIONAL WEATHER SERVICE LA CROSSE WI
800 AM CST SUN FEB 01 2015


...SOUTHEAST MINNESOTA...


CITY           SKY/WX    TMP DP  RH WIND       PRES   REMARKS
ROCHESTER      LGT SNOW  15  11  83 NE22G28   30.07R VSB 3/4 WCI  -3
ROCHESTER/MAYO CLOUDY    15  10  81 NE17      30.10R WCI  -1
WINONA         LGT SNOW  18  12  79 NE8       30.18R WCI   7
AUSTIN         LGT SNOW  16  12  86 NE15G29   30.04R WCI   1
ALBERT LEA     LGT SNOW  16  12  86 NE21G26   30.04R VSB 1   WCI  -2
DODGE CENTER   LGT SNOW  14  12  92 NE18G26   30.07S WCI  -3
PRESTON          N/A     13  10  87 NE18G29   30.05S WCI  -4
OWATONNA       LGT SNOW  14  10  85 NE15G23   30.11R WCI  -1
FARIBAULT      LGT SNOW  12  10  92 N15G21    30.15R WCI  -4
$$

...ELSEWHERE IN MINNESOTA...


CITY           SKY/WX    TMP DP  RH WIND       PRES   REMARKS
MINNEAPOLIS    LGT SNOW  13   6  74 NE16      30.23R WCI  -3
INTNL FALLS    MOCLDY   -18 -24  74 N5        30.47R HAZE    WCI -31
DULUTH         PTCLDY    -3 -10  72 N9        30.31R WCI -19
RED WING       LGT SNOW  14   9  79 E12       30.20R WCI   0
REDWOOD FALLS  LGT SNOW  11   6  81 N13G22    30.23R WCI  -4
MANKATO        CLOUDY    14   9  79 NE22      30.14R WCI  -4
WORTHINGTON    CLOUDY    30   5  34 N21G30    30.10R VSB 1/2 WCI  17
FAIRMONT       CLOUDY    16  10  79 N18G28    30.07R VSB 3/4 WCI  -1
$$

...SOUTHWEST WISCONSIN...


CITY           SKY/WX    TMP DP  RH WIND       PRES   REMARKS
LA CROSSE      LGT SNOW  16  10  77 NE10      30.14S VSB 1   WCI   4
PRAIRIE DU CHI MIX PCPN  18  13  80 NE10      30.04S WCI   6
BOSCOBEL       HVY SNOW  17  12  80 NE9G17    30.07R VSB 1/4 WCI   6
LONE ROCK      LGT SNOW  16  11  80 NE14G21   30.08R VSB 3/4 WCI   2
PLATTEVILLE    CLOUDY    18  16  89 NE22G33   29.95F VSB 3/4 WCI   1
FORT MC COY    LGT SNOW  14   9  83 NE13G22   30.15S WCI  -1
CAMP DOUGLAS   LGT SNOW  12  12 100 NE10      30.14F VSB 1   WCI  -1
VIROQUA        CLOUDY    13  10  87 NE15G28   30.05S WCI  -3
WIS DELLS      LGT SNOW  13   9  84 NE14G21   30.09R WCI  -2
$$

...ELSEWHERE IN WISCONSIN...


CITY           SKY/WX    TMP DP  RH WIND       PRES   REMARKS
MILWAUKEE      SNOW      24  20  84 NE26G32   30.06F VSB 1/4 WCI   8
MADISON        SNOW      15  11  83 NE17      30.06R VSB 1/2 WCI  -1
GREEN BAY      MIX PCPN  12   5  73 NE31G38   30.21F WCI -10
EAU CLAIRE     LGT SNOW  11   4  73 NE9       30.22R WCI  -2
BLACK RVR FLS  LGT SNOW  13   8  81 NE12G18   30.17R WCI  -1
MEDFORD        CLOUDY     8   1  73 NE14G20   30.18R WCI  -9
WAUSAU         CLOUDY    10   1  67 NE13G22   30.18R WCI  -5
WIS RAPIDS     LGT SNOW  11   5  77 NE10G21   30.18R WCI  -3
MARSHFIELD     LGT SNOW  11   5  77 NE15G23   30.16R VSB 1   WCI  -5
RICE LAKE      CLOUDY     9   1  69 NE13G18   30.27R WCI  -7
$$

...NORTHEAST IOWA...


CITY           SKY/WX    TMP DP  RH WIND       PRES   REMARKS
DECORAH        SNOW      16  12  86 NE20G26   30.00F VSB 1/2 WCI  -1
MASON CITY     SNOW      18  15  88 NE30G37   29.99R VSB 1/2 WCI  -1
CHARLES CITY   SNOW      18  16  93 NE26G38   29.97S VSB 1/4 WCI  -1
OELWEIN        SNOW      19  16  86 NE26G36   29.92S VSB 1/4 WCI   1
$$

...ELSEWHERE IN IOWA...


CITY           SKY/WX    TMP DP  RH WIND       PRES   REMARKS
DES MOINES     LGT SNOW  33  30  88 NE12      29.79S VSB 3/4 WCI  24
IOWA CITY      LGT SNOW  30  28  92 NE23G30   29.84S FOG     WCI  17
FORT DODGE     CLOUDY    19  16  86 CALM      29.93R VSB 3/4
$$

...NORTHERN ILLINOIS...


CITY           SKY/WX    TMP DP  RH WIND       PRES   REMARKS
CHICAGO-OHARE  SNOW      30  29  96 NE15      29.93F VSB 1/2 WCI  19
CHICAGO-MIDWAY SNOW      33  31  92 E12       29.93F VSB 1/2 WCI  24
MOLINE         SNOW      32  30  92 NE16      29.84S VSB 1/2 WCI  21
ROCKFORD       SNOW      27  23  85 NE21G31   29.95F VSB 1/2 WCI  13
PEORIA         SNOW      34  32  92 E8        29.82F VSB 1/2 WCI  27
$$

NOTE: "FAIR" INDICATES FEW OR NO CLOUDS BELOW 12,000 FEET WITH NO
SIGNIFICANT WEATHER AND/OR OBSTRUCTIONS TO VISIBILITY. WIND
SPEEDS ARE IN MILES-PER-HOUR.



USA.gov is the U.S. government's official web portal to all federal, state and local government web resources and services.